Time,TemperatureF,DewpointF,PressureIn,WindDirection,WindDirectionDegrees,WindSpeedMPH,WindSpeedGustMPH,Humidity,HourlyPrecipIn,Conditions,Clouds,dailyrainin,SoftwareType,DateUTC
2013-01-07 00:01:00,28.0,19.9,30.00,North,-999,0.0,0.0,71,0.00,,,-99.99,FreeWX-Wi 1.02,2013-01-07 05:01:00,
2013-01-07 00:06:00,27.5,19.4,30.00,North,-999,0.0,0.0,71,0.00,,,-99.99,FreeWX-Wi 1.02,2013-01-07 05:06:00,
2013-01-07 00:11:00,27.9,19.9,30.00,North,-999,0.0,0.0,72,0.00,,,-99.99,FreeWX-Wi 1.02,2013-01-07 05:11:00,
2013-01-07 00:16:00,27.3,18.9,30.00,North,-999,0.0,0.0,70,0.00,,,-99.99,FreeWX-Wi 1.02,2013-01-07 05:16:00,
2013-01-07 00:21:00,26.4,17.6,30.00,North,-999,0.0,0.0,69,0.00,,,-99.99,FreeWX-Wi 1.02,2013-01-07 05:21:00,
2013-01-07 00:26:00,25.9,17.4,30.00,North,-999,0.0,0.0,70,0.00,,,-99.99,FreeWX-Wi 1.02,2013-01-07 05:26:00,
2013-01-07 00:31:00,26.1,18.0,30.00,North,-999,0.0,0.0,71,0.00,,,-99.99,FreeWX-Wi 1.02,2013-01-07 05:31:00,
2013-01-07 00:36:00,26.2,18.5,30.03,North,-999,0.0,0.0,72,0.00,,,-99.99,FreeWX-Wi 1.02,2013-01-07 05:36:00,
2013-01-07 00:41:00,26.6,19.2,30.03,North,-999,0.0,0.0,73,0.00,,,-99.99,FreeWX-Wi 1.02,2013-01-07 05:41:00,
2013-01-07 00:46:00,27.0,19.4,30.03,North,-999,0.0,0.0,73,0.00,,,-99.99,FreeWX-Wi 1.02,2013-01-07 05:46:00,
2013-01-07 00:51:00,27.1,19.6,30.03,North,-999,0.0,0.0,73,0.00,,,-99.99,FreeWX-Wi 1.02,2013-01-07 05:51:00,
2013-01-07 00:56:00,27.1,19.4,30.03,North,-999,0.0,0.0,72,0.00,,,-99.99,FreeWX-Wi 1.02,2013-01-07 05:56:00,
2013-01-07 01:01:00,27.0,19.2,30.03,North,-999,0.0,0.0,72,0.00,,,-99.99,FreeWX-Wi 1.02,2013-01-07 06:01:00,
2013-01-07 01:06:00,26.6,18.5,30.03,North,-999,0.0,0.0,71,0.00,,,-99.99,FreeWX-Wi 1.02,2013-01-07 06:06:00,
2013-01-07 01:11:00,26.1,18.0,30.03,North,-999,0.0,0.0,71,0.00,,,-99.99,FreeWX-Wi 1.02,2013-01-07 06:11:00,
2013-01-07 01:16:00,26.2,18.5,30.03,North,-999,0.0,0.0,72,0.00,,,-99.99,FreeWX-Wi 1.02,2013-01-07 06:16:00,
2013-01-07 01:21:00,26.2,18.5,30.03,North,-999,0.0,0.0,72,0.00,,,-99.99,FreeWX-Wi 1.02,2013-01-07 06:21:00,
2013-01-07 01:26:00,26.4,19.2,30.03,North,-999,0.0,0.0,74,0.00,,,-99.99,FreeWX-Wi 1.02,2013-01-07 06:26:00,
2013-01-07 01:31:00,26.8,19.6,30.03,North,-999,0.0,0.0,74,0.00,,,-99.99,FreeWX-Wi 1.02,2013-01-07 06:31:00,
2013-01-07 01:36:00,26.8,19.2,30.03,North,-999,0.0,0.0,73,0.00,,,-99.99,FreeWX-Wi 1.02,2013-01-07 06:36:00,
2013-01-07 01:41:00,27.0,19.4,30.03,North,-999,0.0,0.0,73,0.00,,,-99.99,FreeWX-Wi 1.02,2013-01-07 06:41:00,
2013-01-07 01:46:00,26.8,19.0,30.03,North,-999,0.0,0.0,72,0.00,,,-99.99,FreeWX-Wi 1.02,2013-01-07 06:46:00,
2013-01-07 01:51:00,26.8,19.2,30.03,North,-999,0.0,0.0,73,0.00,,,-99.99,FreeWX-Wi 1.02,2013-01-07 06:51:00,
2013-01-07 01:56:00,27.0,19.4,30.03,North,-999,0.0,0.0,73,0.00,,,-99.99,FreeWX-Wi 1.02,2013-01-07 06:56:00,
2013-01-07 02:01:00,27.5,20.3,30.03,North,-999,0.0,0.0,74,0.00,,,-99.99,FreeWX-Wi 1.02,2013-01-07 07:01:00,
2013-01-07 02:06:00,28.2,20.3,30.03,North,-999,0.0,0.0,72,0.04,,,-99.99,FreeWX-Wi 1.02,2013-01-07 07:06:00,
2013-01-07 02:11:00,28.8,19.6,30.03,North,-999,0.0,0.0,68,0.04,,,-99.99,FreeWX-Wi 1.02,2013-01-07 07:11:00,
2013-01-07 02:16:00,28.6,18.7,30.03,North,-999,0.0,0.0,66,0.04,,,-99.99,FreeWX-Wi 1.02,2013-01-07 07:16:00,
2013-01-07 02:21:00,27.1,16.9,30.06,North,-999,0.0,0.0,65,0.04,,,-99.99,FreeWX-Wi 1.02,2013-01-07 07:21:00,
2013-01-07 02:26:00,26.8,17.2,30.06,North,-999,0.0,0.0,67,0.04,,,-99.99,FreeWX-Wi 1.02,2013-01-07 07:26:00,
2013-01-07 02:31:00,26.4,17.1,30.06,North,-999,0.0,0.0,67,0.04,,,-99.99,FreeWX-Wi 1.02,2013-01-07 07:31:00,
2013-01-07 02:36:00,25.9,16.5,30.06,North,-999,0.0,0.0,67,0.04,,,-99.99,FreeWX-Wi 1.02,2013-01-07 07:36:00,
2013-01-07 02:41:00,25.5,16.5,30.06,North,-999,0.0,0.0,68,0.04,,,-99.99,FreeWX-Wi 1.02,2013-01-07 07:41:00,
2013-01-07 02:46:00,25.0,16.0,30.06,North,-999,0.0,0.0,68,0.04,,,-99.99,FreeWX-Wi 1.02,2013-01-07 07:46:00,
2013-01-07 02:51:00,24.6,16.0,30.06,North,-999,0.0,0.0,69,0.04,,,-99.99,FreeWX-Wi 1.02,2013-01-07 07:51:00,
2013-01-07 02:56:00,24.6,16.3,30.06,North,-999,0.0,0.0,70,0.04,,,-99.99,FreeWX-Wi 1.02,2013-01-07 07:56:00,
2013-01-07 03:01:00,25.0,16.9,30.06,North,-999,0.0,0.0,71,0.00,,,-99.99,FreeWX-Wi 1.02,2013-01-07 08:01:00,
2013-01-07 03:06:00,25.0,16.9,30.06,North,-999,0.0,0.0,71,0.00,,,-99.99,FreeWX-Wi 1.02,2013-01-07 08:06:00,
2013-01-07 03:11:00,25.0,16.9,30.06,North,-999,0.0,0.0,71,0.00,,,-99.99,FreeWX-Wi 1.02,2013-01-07 08:11:00,
2013-01-07 03:16:00,25.0,17.6,30.06,North,-999,0.0,0.0,73,0.00,,,-99.99,FreeWX-Wi 1.02,2013-01-07 08:16:00,
2013-01-07 03:21:00,25.3,18.3,30.06,North,-999,0.0,0.0,74,0.00,,,-99.99,FreeWX-Wi 1.02,2013-01-07 08:21:00,
2013-01-07 03:26:00,25.5,18.1,30.06,North,-999,0.0,0.0,73,0.00,,,-99.99,FreeWX-Wi 1.02,2013-01-07 08:26:00,
2013-01-07 03:31:00,25.3,18.5,30.06,North,-999,0.0,0.0,75,0.00,,,-99.99,FreeWX-Wi 1.02,2013-01-07 08:31:00,
2013-01-07 03:36:00,25.9,19.9,30.06,North,-999,0.0,0.0,78,0.00,,,-99.99,FreeWX-Wi 1.02,2013-01-07 08:36:00,
2013-01-07 03:41:00,25.9,19.8,30.06,North,-999,0.0,0.0,77,0.00,,,-99.99,FreeWX-Wi 1.02,2013-01-07 08:41:00,
2013-01-07 03:46:00,25.7,18.9,30.06,North,-999,0.0,0.0,75,0.00,,,-99.99,FreeWX-Wi 1.02,2013-01-07 08:46:00,
2013-01-07 03:51:00,25.3,18.5,30.06,North,-999,0.0,0.0,75,0.00,,,-99.99,FreeWX-Wi 1.02,2013-01-07 08:51:00,
2013-01-07 03:56:00,24.8,18.0,30.06,North,-999,0.0,0.0,75,0.00,,,-99.99,FreeWX-Wi 1.02,2013-01-07 08:56:00,
2013-01-07 04:01:00,24.3,17.2,30.06,North,-999,0.0,0.0,74,0.00,,,-99.99,FreeWX-Wi 1.02,2013-01-07 09:01:00,
2013-01-07 04:06:00,24.6,18.5,30.06,North,-999,0.0,0.0,77,0.00,,,-99.99,FreeWX-Wi 1.02,2013-01-07 09:06:00,
2013-01-07 04:11:00,24.8,18.7,30.06,North,-999,0.0,0.0,77,0.00,,,-99.99,FreeWX-Wi 1.02,2013-01-07 09:11:00,
2013-01-07 04:16:00,24.8,18.7,30.06,North,-999,0.0,0.0,77,0.00,,,-99.99,FreeWX-Wi 1.02,2013-01-07 09:16:00,
2013-01-07 04:21:00,25.3,19.4,30.06,North,-999,0.0,0.0,78,0.00,,,-99.99,FreeWX-Wi 1.02,2013-01-07 09:21:00,
2013-01-07 04:26:00,25.7,19.8,30.06,North,-999,0.0,0.0,78,0.00,,,-99.99,FreeWX-Wi 1.02,2013-01-07 09:26:00,
2013-01-07 04:31:00,25.2,18.3,30.06,North,-999,0.0,0.0,75,0.00,,,-99.99,FreeWX-Wi 1.02,2013-01-07 09:31:00,
2013-01-07 04:36:00,24.6,17.8,30.06,North,-999,0.0,0.0,75,0.00,,,-99.99,FreeWX-Wi 1.02,2013-01-07 09:36:00,
2013-01-07 04:41:00,24.6,18.1,30.06,North,-999,0.0,0.0,76,0.00,,,-99.99,FreeWX-Wi 1.02,2013-01-07 09:41:00,
2013-01-07 04:46:00,25.2,18.7,30.06,North,-999,0.0,0.0,76,0.00,,,-99.99,FreeWX-Wi 1.02,2013-01-07 09:46:00,
2013-01-07 04:51:00,25.3,18.9,30.09,North,-999,0.0,0.0,76,0.00,,,-99.99,FreeWX-Wi 1.02,2013-01-07 09:51:00,
2013-01-07 04:56:00,25.9,19.8,30.09,North,-999,0.0,0.0,77,0.00,,,-99.99,FreeWX-Wi 1.02,2013-01-07 09:56:00,
2013-01-07 05:01:00,25.9,19.4,30.09,North,-999,0.0,0.0,76,0.00,,,-99.99,FreeWX-Wi 1.02,2013-01-07 10:01:00,
2013-01-07 05:06:00,26.1,20.1,30.09,North,-999,0.0,0.0,78,0.00,,,-99.99,FreeWX-Wi 1.02,2013-01-07 10:06:00,
2013-01-07 05:11:00,27.0,21.4,30.09,North,-999,0.0,0.0,79,0.00,,,-99.99,FreeWX-Wi 1.02,2013-01-07 10:11:00,
2013-01-07 05:16:00,27.3,21.4,30.09,North,-999,0.0,0.0,78,0.00,,,-99.99,FreeWX-Wi 1.02,2013-01-07 10:16:00,
2013-01-07 05:21:00,27.1,20.8,30.09,North,-999,0.0,0.0,77,0.00,,,-99.99,FreeWX-Wi 1.02,2013-01-07 10:21:00,
2013-01-07 05:26:00,27.5,21.9,30.09,North,-999,0.0,0.0,79,0.00,,,-99.99,FreeWX-Wi 1.02,2013-01-07 10:26:00,
2013-01-07 05:31:00,27.9,21.9,30.09,North,-999,0.0,0.0,78,0.00,,,-99.99,FreeWX-Wi 1.02,2013-01-07 10:31:00,
2013-01-07 05:36:00,27.7,20.8,30.09,North,-999,0.0,0.0,75,0.00,,,-99.99,FreeWX-Wi 1.02,2013-01-07 10:36:00,
2013-01-07 05:41:00,26.6,19.2,30.09,North,-999,0.0,0.0,73,0.00,,,-99.99,FreeWX-Wi 1.02,2013-01-07 10:41:00,
2013-01-07 05:46:00,26.2,18.9,30.09,North,-999,0.0,0.0,73,0.00,,,-99.99,FreeWX-Wi 1.02,2013-01-07 10:46:00,
2013-01-07 05:51:00,26.2,19.0,30.12,North,-999,0.0,0.0,74,0.00,,,-99.99,FreeWX-Wi 1.02,2013-01-07 10:51:00,
2013-01-07 05:56:00,26.1,18.9,30.12,North,-999,0.0,0.0,74,0.00,,,-99.99,FreeWX-Wi 1.02,2013-01-07 10:56:00,
2013-01-07 06:01:00,26.2,19.0,30.12,North,-999,0.0,0.0,74,0.00,,,-99.99,FreeWX-Wi 1.02,2013-01-07 11:01:00,
2013-01-07 06:06:00,26.1,18.9,30.12,North,-999,0.0,0.0,74,0.00,,,-99.99,FreeWX-Wi 1.02,2013-01-07 11:06:00,
2013-01-07 06:11:00,25.7,18.5,30.12,North,-999,0.0,0.0,74,0.00,,,-99.99,FreeWX-Wi 1.02,2013-01-07 11:11:00,
2013-01-07 06:16:00,25.5,19.0,30.12,North,-999,0.0,0.0,76,0.00,,,-99.99,FreeWX-Wi 1.02,2013-01-07 11:16:00,
2013-01-07 06:21:00,26.1,20.1,30.12,North,-999,0.0,0.0,78,0.00,,,-99.99,FreeWX-Wi 1.02,2013-01-07 11:21:00,
2013-01-07 06:26:00,26.6,20.7,30.12,North,-999,0.0,0.0,78,0.00,,,-99.99,FreeWX-Wi 1.02,2013-01-07 11:26:00,
2013-01-07 06:32:00,26.4,20.1,30.12,North,-999,0.0,0.0,77,0.00,,,-99.99,FreeWX-Wi 1.02,2013-01-07 11:32:00,
2013-01-07 06:37:00,26.1,19.6,30.15,North,-999,0.0,0.0,76,0.00,,,-99.99,FreeWX-Wi 1.02,2013-01-07 11:37:00,
2013-01-07 06:42:00,26.1,19.9,30.15,North,-999,0.0,0.0,77,0.00,,,-99.99,FreeWX-Wi 1.02,2013-01-07 11:42:00,
2013-01-07 06:47:00,26.2,20.3,30.15,North,-999,0.0,0.0,78,0.00,,,-99.99,FreeWX-Wi 1.02,2013-01-07 11:47:00,
2013-01-07 06:52:00,26.4,20.1,30.15,North,-999,0.0,0.0,77,0.00,,,-99.99,FreeWX-Wi 1.02,2013-01-07 11:52:00,
2013-01-07 06:57:00,26.8,21.2,30.15,North,-999,0.0,0.0,79,0.00,,,-99.99,FreeWX-Wi 1.02,2013-01-07 11:57:00,
2013-01-07 07:02:00,27.0,21.0,30.15,North,-999,0.0,0.0,78,0.00,,,-99.99,FreeWX-Wi 1.02,2013-01-07 12:02:00,
2013-01-07 07:07:00,26.4,19.9,30.15,North,-999,0.0,0.0,76,0.00,,,-99.99,FreeWX-Wi 1.02,2013-01-07 12:07:00,
2013-01-07 07:12:00,26.1,19.6,30.15,North,-999,0.0,0.0,76,0.00,,,-99.99,FreeWX-Wi 1.02,2013-01-07 12:12:00,
2013-01-07 07:17:00,26.2,20.1,30.15,North,-999,0.0,0.0,77,0.00,,,-99.99,FreeWX-Wi 1.02,2013-01-07 12:17:00,
2013-01-07 07:22:00,26.4,20.1,30.18,North,-999,0.0,0.0,77,0.00,,,-99.99,FreeWX-Wi 1.02,2013-01-07 12:22:00,
2013-01-07 07:27:00,26.6,20.7,30.18,North,-999,0.0,0.0,78,0.00,,,-99.99,FreeWX-Wi 1.02,2013-01-07 12:27:00,
2013-01-07 07:32:00,27.0,21.4,30.18,North,-999,0.0,0.0,79,0.00,,,-99.99,FreeWX-Wi 1.02,2013-01-07 12:32:00,
2013-01-07 07:37:00,27.0,21.0,30.18,North,-999,0.0,0.0,78,0.00,,,-99.99,FreeWX-Wi 1.02,2013-01-07 12:37:00,
2013-01-07 07:42:00,26.8,20.5,30.18,North,-999,0.0,0.0,77,0.00,,,-99.99,FreeWX-Wi 1.02,2013-01-07 12:42:00,
2013-01-07 07:47:00,26.8,20.3,30.18,North,-999,0.0,0.0,76,0.00,,,-99.99,FreeWX-Wi 1.02,2013-01-07 12:47:00,
2013-01-07 07:52:00,26.6,20.1,30.18,North,-999,0.0,0.0,76,0.00,,,-99.99,FreeWX-Wi 1.02,2013-01-07 12:52:00,
2013-01-07 07:57:00,27.0,20.7,30.18,North,-999,0.0,0.0,77,0.00,,,-99.99,FreeWX-Wi 1.02,2013-01-07 12:57:00,
2013-01-07 08:02:00,28.4,22.8,30.18,North,-999,0.0,0.0,79,0.00,,,-99.99,FreeWX-Wi 1.02,2013-01-07 13:02:00,
2013-01-07 08:07:00,29.3,22.5,30.21,North,-999,0.0,0.0,75,0.00,,,-99.99,FreeWX-Wi 1.02,2013-01-07 13:07:00,
2013-01-07 08:12:00,30.2,20.3,30.21,North,-999,0.0,0.0,66,0.00,,,-99.99,FreeWX-Wi 1.02,2013-01-07 13:12:00,
2013-01-07 08:17:00,30.6,20.3,30.21,North,-999,0.0,0.0,65,0.00,,,-99.99,FreeWX-Wi 1.02,2013-01-07 13:17:00,
2013-01-07 08:22:00,30.2,20.3,30.21,North,-999,0.0,0.0,66,0.00,,,-99.99,FreeWX-Wi 1.02,2013-01-07 13:22:00,
2013-01-07 08:27:00,31.8,21.4,30.21,North,-999,0.0,0.0,65,0.00,,,-99.99,FreeWX-Wi 1.02,2013-01-07 13:27:00,
2013-01-07 08:32:00,32.2,21.4,30.21,North,-999,0.0,0.0,64,0.00,,,-99.99,FreeWX-Wi 1.02,2013-01-07 13:32:00,
2013-01-07 08:37:00,32.2,21.0,30.21,North,-999,0.0,0.0,63,0.00,,,-99.99,FreeWX-Wi 1.02,2013-01-07 13:37:00,
2013-01-07 08:42:00,33.3,21.2,30.21,North,-999,0.0,0.0,61,0.00,,,-99.99,FreeWX-Wi 1.02,2013-01-07 13:42:00,
2013-01-07 08:47:00,33.8,20.7,30.21,North,-999,0.0,0.0,58,0.00,,,-99.99,FreeWX-Wi 1.02,2013-01-07 13:47:00,
2013-01-07 08:52:00,34.0,19.9,30.21,North,-999,0.0,0.0,56,0.00,,,-99.99,FreeWX-Wi 1.02,2013-01-07 13:52:00,
2013-01-07 08:57:00,34.0,19.9,30.21,North,-999,0.0,0.0,56,0.00,,,-99.99,FreeWX-Wi 1.02,2013-01-07 13:57:00,
2013-01-07 09:02:00,34.0,19.6,30.21,North,-999,0.0,0.0,55,0.00,,,-99.99,FreeWX-Wi 1.02,2013-01-07 14:02:00,
2013-01-07 09:07:00,35.2,20.7,30.24,North,-999,0.0,0.0,55,0.00,,,-99.99,FreeWX-Wi 1.02,2013-01-07 14:07:00,
2013-01-07 09:12:00,37.0,18.7,30.24,North,-999,0.0,0.0,47,0.00,,,-99.99,FreeWX-Wi 1.02,2013-01-07 14:12:00,
2013-01-07 09:17:00,38.5,13.8,30.24,North,-999,0.0,3.6,36,0.00,,,-99.99,FreeWX-Wi 1.02,2013-01-07 14:17:00,
2013-01-07 09:22:00,37.9,10.0,30.24,North,-999,0.0,4.0,31,0.00,,,-99.99,FreeWX-Wi 1.02,2013-01-07 14:22:00,
2013-01-07 09:27:00,37.4,9.5,30.24,ENE,58,1.0,4.0,31,0.00,,,-99.99,FreeWX-Wi 1.02,2013-01-07 14:27:00,
2013-01-07 09:32:00,39.6,9.1,30.24,NNE,17,1.0,4.0,28,0.00,,,-99.99,FreeWX-Wi 1.02,2013-01-07 14:32:00,
2013-01-07 09:37:00,39.2,8.8,30.24,North,350,1.0,3.1,28,0.00,,,-99.99,FreeWX-Wi 1.02,2013-01-07 14:37:00,
2013-01-07 09:42:00,38.5,9.0,30.24,NNW,335,1.0,2.7,29,0.00,,,-99.99,FreeWX-Wi 1.02,2013-01-07 14:42:00,
2013-01-07 09:47:00,38.1,8.8,30.24,NW,326,1.0,4.0,29,0.00,,,-99.99,FreeWX-Wi 1.02,2013-01-07 14:47:00,
2013-01-07 09:52:00,38.1,8.8,30.27,NW,321,1.0,3.6,29,0.00,,,-99.99,FreeWX-Wi 1.02,2013-01-07 14:52:00,
2013-01-07 09:57:00,38.3,6.4,30.27,NW,319,1.0,4.0,26,0.00,,,-99.99,FreeWX-Wi 1.02,2013-01-07 14:57:00,
2013-01-07 10:02:00,38.8,7.0,30.27,NW,318,1.0,4.9,26,0.00,,,-99.99,FreeWX-Wi 1.02,2013-01-07 15:02:00,
2013-01-07 10:07:00,39.7,7.7,30.27,NW,316,2.0,5.4,26,0.00,,,-99.99,FreeWX-Wi 1.02,2013-01-07 15:07:00,
2013-01-07 10:12:00,41.7,8.6,30.27,NW,311,2.0,4.9,25,0.00,,,-99.99,FreeWX-Wi 1.02,2013-01-07 15:12:00,
2013-01-07 10:17:00,43.5,9.1,30.27,NW,313,2.0,5.4,24,0.00,,,-99.99,FreeWX-Wi 1.02,2013-01-07 15:17:00,
2013-01-07 10:22:00,42.4,9.1,30.27,NW,314,2.0,5.8,25,0.00,,,-99.99,FreeWX-Wi 1.02,2013-01-07 15:22:00,
2013-01-07 10:27:00,42.4,9.1,30.27,NW,315,2.0,4.0,25,0.00,,,-99.99,FreeWX-Wi 1.02,2013-01-07 15:27:00,
2013-01-07 10:32:00,42.6,9.3,30.27,NW,312,2.0,5.4,25,0.00,,,-99.99,FreeWX-Wi 1.02,2013-01-07 15:32:00,
2013-01-07 10:37:00,45.3,10.8,30.27,NW,309,2.0,4.5,24,0.00,,,-99.99,FreeWX-Wi 1.02,2013-01-07 15:37:00,
2013-01-07 10:42:00,44.1,9.7,30.27,WNW,300,2.0,4.0,24,0.00,,,-99.99,FreeWX-Wi 1.02,2013-01-07 15:42:00,
2013-01-07 10:47:00,42.8,8.6,30.27,WNW,303,2.0,3.1,24,0.00,,,-99.99,FreeWX-Wi 1.02,2013-01-07 15:47:00,
2013-01-07 10:52:00,42.4,9.1,30.27,NW,313,2.0,6.3,25,0.00,,,-99.99,FreeWX-Wi 1.02,2013-01-07 15:52:00,
2013-01-07 10:57:00,43.3,9.0,30.27,NW,321,2.0,6.3,24,0.00,,,-99.99,FreeWX-Wi 1.02,2013-01-07 15:57:00,
2013-01-07 11:02:00,43.9,9.5,30.27,NW,320,2.0,8.3,24,0.00,,,-99.99,FreeWX-Wi 1.02,2013-01-07 16:02:00,
2013-01-07 11:07:00,43.5,9.1,30.27,NNW,327,3.0,6.3,24,0.00,,,-99.99,FreeWX-Wi 1.02,2013-01-07 16:07:00,
2013-01-07 11:12:00,45.1,10.6,30.27,NNW,327,3.0,5.4,24,0.00,,,-99.99,FreeWX-Wi 1.02,2013-01-07 16:12:00,
2013-01-07 11:17:00,46.4,10.6,30.27,NW,319,3.0,5.8,23,0.00,,,-99.99,FreeWX-Wi 1.02,2013-01-07 16:17:00,
2013-01-07 11:22:00,46.4,10.6,30.27,NW,319,3.0,5.8,23,0.00,,,-99.99,FreeWX-Wi 1.02,2013-01-07 16:22:00,
2013-01-07 11:27:00,45.7,10.9,30.27,NW,325,3.0,5.4,24,0.00,,,-99.99,FreeWX-Wi 1.02,2013-01-07 16:27:00,
2013-01-07 11:32:00,43.9,9.5,30.27,NNW,329,3.0,5.4,24,0.00,,,-99.99,FreeWX-Wi 1.02,2013-01-07 16:32:00,
2013-01-07 11:37:00,42.1,8.8,30.27,NNW,332,2.0,5.4,25,0.00,,,-99.99,FreeWX-Wi 1.02,2013-01-07 16:37:00,
2013-01-07 11:42:00,42.8,8.6,30.27,NNW,336,2.0,5.8,24,0.00,,,-99.99,FreeWX-Wi 1.02,2013-01-07 16:42:00,
2013-01-07 11:47:00,41.7,8.6,30.27,NNW,334,3.0,5.4,25,0.00,,,-99.99,FreeWX-Wi 1.02,2013-01-07 16:47:00,
2013-01-07 11:52:00,42.4,9.1,30.27,NW,325,3.0,5.8,25,0.00,,,-99.99,FreeWX-Wi 1.02,2013-01-07 16:52:00,
2013-01-07 11:57:00,43.5,9.1,30.27,NW,320,2.0,4.0,24,0.00,,,-99.99,FreeWX-Wi 1.02,2013-01-07 16:57:00,
2013-01-07 12:02:00,45.5,10.8,30.27,NW,316,3.0,5.8,24,0.00,,,-99.99,FreeWX-Wi 1.02,2013-01-07 17:02:00,
2013-01-07 12:07:00,45.5,10.8,30.27,NW,312,2.0,4.0,24,0.00,,,-99.99,FreeWX-Wi 1.02,2013-01-07 17:07:00,
2013-01-07 12:12:00,43.5,9.1,30.27,NW,312,2.0,4.9,24,0.00,,,-99.99,FreeWX-Wi 1.02,2013-01-07 17:12:00,
2013-01-07 12:17:00,42.1,8.8,30.27,NW,320,2.0,5.8,25,0.00,,,-99.99,FreeWX-Wi 1.02,2013-01-07 17:17:00,
2013-01-07 12:22:00,41.2,8.1,30.30,NW,317,2.0,5.4,25,0.00,,,-99.99,FreeWX-Wi 1.02,2013-01-07 17:22:00,
2013-01-07 12:27:00,42.3,9.0,30.30,NW,322,2.0,4.0,25,0.00,,,-99.99,FreeWX-Wi 1.02,2013-01-07 17:27:00,
2013-01-07 12:32:00,43.5,9.1,30.30,NNW,329,2.0,0.0,24,0.00,,,-99.99,FreeWX-Wi 1.02,2013-01-07 17:32:00,
2013-01-07 12:37:00,43.5,9.1,30.30,NW,325,2.0,4.0,24,0.00,,,-99.99,FreeWX-Wi 1.02,2013-01-07 17:37:00,
2013-01-07 12:42:00,41.9,8.6,30.30,NW,326,2.0,5.4,25,0.00,,,-99.99,FreeWX-Wi 1.02,2013-01-07 17:42:00,
2013-01-07 12:47:00,41.4,8.2,30.30,NNW,331,2.0,6.3,25,0.00,,,-99.99,FreeWX-Wi 1.02,2013-01-07 17:47:00,
2013-01-07 12:52:00,41.5,8.4,30.30,NNW,341,1.0,4.9,25,0.00,,,-99.99,FreeWX-Wi 1.02,2013-01-07 17:52:00,
2013-01-07 12:57:00,41.9,8.6,30.30,NNW,335,2.0,5.4,25,0.00,,,-99.99,FreeWX-Wi 1.02,2013-01-07 17:57:00,
2013-01-07 13:02:00,42.8,8.6,30.30,NNW,331,2.0,4.9,24,0.00,,,-99.99,FreeWX-Wi 1.02,2013-01-07 18:02:00,
2013-01-07 13:07:00,42.4,9.1,30.30,NNW,332,2.0,4.0,25,0.00,,,-99.99,FreeWX-Wi 1.02,2013-01-07 18:07:00,
2013-01-07 13:12:00,43.3,9.0,30.30,NW,320,2.0,4.9,24,0.00,,,-99.99,FreeWX-Wi 1.02,2013-01-07 18:12:00,
2013-01-07 13:17:00,42.8,8.6,30.30,NW,311,2.0,5.8,24,0.00,,,-99.99,FreeWX-Wi 1.02,2013-01-07 18:17:00,
2013-01-07 13:22:00,41.7,8.6,30.30,NW,315,2.0,5.4,25,0.00,,,-99.99,FreeWX-Wi 1.02,2013-01-07 18:22:00,
2013-01-07 13:27:00,40.5,7.5,30.30,NW,315,2.0,5.4,25,0.00,,,-99.99,FreeWX-Wi 1.02,2013-01-07 18:27:00,
2013-01-07 13:32:00,39.6,6.6,30.30,NW,320,2.0,5.4,25,0.00,,,-99.99,FreeWX-Wi 1.02,2013-01-07 18:32:00,
2013-01-07 13:37:00,39.9,7.0,30.33,NNW,332,2.0,5.4,25,0.00,,,-99.99,FreeWX-Wi 1.02,2013-01-07 18:37:00,
2013-01-07 13:42:00,39.7,6.8,30.33,NNW,344,2.0,3.6,25,0.00,,,-99.99,FreeWX-Wi 1.02,2013-01-07 18:42:00,
2013-01-07 13:47:00,40.3,7.3,30.33,NNW,342,2.0,3.6,25,0.00,,,-99.99,FreeWX-Wi 1.02,2013-01-07 18:47:00,
2013-01-07 13:52:00,40.1,7.2,30.33,NNW,344,1.0,0.0,25,0.00,,,-99.99,FreeWX-Wi 1.02,2013-01-07 18:52:00,
2013-01-07 13:57:00,39.7,6.8,30.33,North,349,1.0,3.6,25,0.00,,,-99.99,FreeWX-Wi 1.02,2013-01-07 18:57:00,
2013-01-07 14:02:00,39.6,6.6,30.33,NNW,345,1.0,3.6,25,0.00,,,-99.99,FreeWX-Wi 1.02,2013-01-07 19:02:00,
2013-01-07 14:07:00,38.8,6.1,30.33,NNW,346,1.0,3.6,25,0.00,,,-99.99,FreeWX-Wi 1.02,2013-01-07 19:07:00,
2013-01-07 14:12:00,38.7,5.9,30.33,NNW,342,1.0,3.1,25,0.00,,,-99.99,FreeWX-Wi 1.02,2013-01-07 19:12:00,
2013-01-07 14:17:00,38.5,5.7,30.33,NNW,345,1.0,3.1,25,0.00,,,-99.99,FreeWX-Wi 1.02,2013-01-07 19:17:00,
2013-01-07 14:22:00,38.5,5.7,30.33,NNW,347,1.0,4.0,25,0.00,,,-99.99,FreeWX-Wi 1.02,2013-01-07 19:22:00,
2013-01-07 14:27:00,38.3,5.5,30.33,North,355,1.0,4.9,25,0.00,,,-99.99,FreeWX-Wi 1.02,2013-01-07 19:27:00,
2013-01-07 14:33:00,38.3,5.5,30.33,North,354,1.0,4.0,25,0.00,,,-99.99,FreeWX-Wi 1.02,2013-01-07 19:33:00,
2013-01-07 14:38:00,38.1,5.4,30.33,North,354,1.0,3.1,25,0.00,,,-99.99,FreeWX-Wi 1.02,2013-01-07 19:38:00,
2013-01-07 14:43:00,37.8,5.2,30.33,North,354,1.0,3.1,25,0.00,,,-99.99,FreeWX-Wi 1.02,2013-01-07 19:43:00,
2013-01-07 14:48:00,37.6,5.0,30.33,North,349,1.0,3.6,25,0.00,,,-99.99,FreeWX-Wi 1.02,2013-01-07 19:48:00,
2013-01-07 14:53:00,37.8,5.2,30.33,NNW,346,1.0,4.0,25,0.00,,,-99.99,FreeWX-Wi 1.02,2013-01-07 19:53:00,
2013-01-07 14:58:00,37.9,5.4,30.33,NNW,343,1.0,3.6,25,0.00,,,-99.99,FreeWX-Wi 1.02,2013-01-07 19:58:00,
2013-01-07 15:03:00,37.6,5.0,30.33,NNW,340,1.0,2.2,25,0.00,,,-99.99,FreeWX-Wi 1.02,2013-01-07 20:03:00,
2013-01-07 15:08:00,37.2,5.5,30.36,NNW,340,1.0,3.6,26,0.00,,,-99.99,FreeWX-Wi 1.02,2013-01-07 20:08:00,
2013-01-07 15:13:00,37.0,5.4,30.36,NNW,341,1.0,3.6,26,0.00,,,-99.99,FreeWX-Wi 1.02,2013-01-07 20:13:00,
2013-01-07 15:18:00,36.9,5.2,30.36,NNW,338,1.0,2.7,26,0.00,,,-99.99,FreeWX-Wi 1.02,2013-01-07 20:18:00,
2013-01-07 15:23:00,36.7,5.0,30.36,North,-999,0.0,2.7,26,0.00,,,-99.99,FreeWX-Wi 1.02,2013-01-07 20:23:00,
2013-01-07 15:28:00,36.1,4.6,30.36,North,-999,0.0,3.1,26,0.00,,,-99.99,FreeWX-Wi 1.02,2013-01-07 20:28:00,
2013-01-07 15:33:00,36.1,4.6,30.36,North,-999,0.0,3.6,26,0.00,,,-99.99,FreeWX-Wi 1.02,2013-01-07 20:33:00,
2013-01-07 15:38:00,36.0,4.5,30.36,North,-999,0.0,0.0,26,0.00,,,-99.99,FreeWX-Wi 1.02,2013-01-07 20:38:00,
2013-01-07 15:43:00,35.8,4.3,30.36,North,-999,0.0,0.0,26,0.00,,,-99.99,FreeWX-Wi 1.02,2013-01-07 20:43:00,
2013-01-07 15:48:00,35.2,3.7,30.36,North,-999,0.0,2.7,26,0.00,,,-99.99,FreeWX-Wi 1.02,2013-01-07 20:48:00,
2013-01-07 15:53:00,35.1,3.7,30.36,North,-999,0.0,0.0,26,0.00,,,-99.99,FreeWX-Wi 1.02,2013-01-07 20:53:00,
2013-01-07 15:58:00,34.9,3.6,30.36,North,-999,0.0,0.0,26,0.00,,,-99.99,FreeWX-Wi 1.02,2013-01-07 20:58:00,
2013-01-07 16:03:00,34.5,3.2,30.36,North,-999,0.0,3.1,26,0.00,,,-99.99,FreeWX-Wi 1.02,2013-01-07 21:03:00,
2013-01-07 16:08:00,34.2,2.8,30.36,North,-999,0.0,0.0,26,0.00,,,-99.99,FreeWX-Wi 1.02,2013-01-07 21:08:00,
2013-01-07 16:13:00,34.0,2.7,30.36,North,-999,0.0,0.0,26,0.00,,,-99.99,FreeWX-Wi 1.02,2013-01-07 21:13:00,
2013-01-07 16:18:00,33.8,2.7,30.36,North,-999,0.0,0.0,26,0.00,,,-99.99,FreeWX-Wi 1.02,2013-01-07 21:18:00,
2013-01-07 16:23:00,33.6,3.2,30.36,North,-999,0.0,0.0,27,0.00,,,-99.99,FreeWX-Wi 1.02,2013-01-07 21:23:00,
2013-01-07 16:28:00,33.3,3.0,30.36,North,-999,0.0,0.0,27,0.00,,,-99.99,FreeWX-Wi 1.02,2013-01-07 21:28:00,
2013-01-07 16:33:00,33.4,3.0,30.36,North,-999,0.0,0.0,27,0.00,,,-99.99,FreeWX-Wi 1.02,2013-01-07 21:33:00,
2013-01-07 16:38:00,33.4,3.0,30.39,North,-999,0.0,0.0,27,0.00,,,-99.99,FreeWX-Wi 1.02,2013-01-07 21:38:00,
2013-01-07 16:43:00,33.3,3.0,30.39,North,-999,0.0,0.0,27,0.00,,,-99.99,FreeWX-Wi 1.02,2013-01-07 21:43:00,
2013-01-07 16:48:00,33.1,2.8,30.39,North,-999,0.0,0.0,27,0.00,,,-99.99,FreeWX-Wi 1.02,2013-01-07 21:48:00,
2013-01-07 16:53:00,33.1,2.8,30.39,North,-999,0.0,0.0,27,0.00,,,-99.99,FreeWX-Wi 1.02,2013-01-07 21:53:00,
2013-01-07 16:58:00,32.7,2.5,30.39,North,-999,0.0,0.0,27,0.00,,,-99.99,FreeWX-Wi 1.02,2013-01-07 21:58:00,
2013-01-07 17:03:00,32.7,2.5,30.39,North,-999,0.0,0.0,27,0.00,,,-99.99,FreeWX-Wi 1.02,2013-01-07 22:03:00,
2013-01-07 17:08:00,32.5,2.3,30.39,North,-999,0.0,0.0,27,0.00,,,-99.99,FreeWX-Wi 1.02,2013-01-07 22:08:00,
2013-01-07 17:13:00,32.2,1.9,30.39,North,-999,0.0,0.0,27,0.00,,,-99.99,FreeWX-Wi 1.02,2013-01-07 22:13:00,
2013-01-07 17:18:00,31.5,1.4,30.39,North,-999,0.0,0.0,27,0.00,,,-99.99,FreeWX-Wi 1.02,2013-01-07 22:18:00,
2013-01-07 17:23:00,30.4,0.5,30.39,North,-999,0.0,0.0,27,0.00,,,-99.99,FreeWX-Wi 1.02,2013-01-07 22:23:00,
2013-01-07 17:28:00,30.0,0.1,30.39,North,-999,0.0,0.0,27,0.00,,,-99.99,FreeWX-Wi 1.02,2013-01-07 22:28:00,
2013-01-07 17:33:00,29.5,-0.4,30.39,North,-999,0.0,0.0,27,0.00,,,-99.99,FreeWX-Wi 1.02,2013-01-07 22:33:00,
2013-01-07 17:38:00,29.1,-0.6,30.39,North,-999,0.0,0.0,27,0.00,,,-99.99,FreeWX-Wi 1.02,2013-01-07 22:38:00,
2013-01-07 17:43:00,28.9,0.0,30.39,North,-999,0.0,0.0,28,0.00,,,-99.99,FreeWX-Wi 1.02,2013-01-07 22:43:00,
2013-01-07 17:48:00,28.4,-0.6,30.39,North,-999,0.0,0.0,28,0.00,,,-99.99,FreeWX-Wi 1.02,2013-01-07 22:48:00,
2013-01-07 17:53:00,28.0,-0.8,30.39,North,-999,0.0,0.0,28,0.00,,,-99.99,FreeWX-Wi 1.02,2013-01-07 22:53:00,
2013-01-07 17:58:00,27.9,-0.9,30.39,North,-999,0.0,0.0,28,0.00,,,-99.99,FreeWX-Wi 1.02,2013-01-07 22:58:00,
2013-01-07 18:03:00,27.7,-1.1,30.39,North,-999,0.0,0.0,28,0.00,,,-99.99,FreeWX-Wi 1.02,2013-01-07 23:03:00,
2013-01-07 18:08:00,27.7,-1.1,30.41,North,-999,0.0,0.0,28,0.00,,,-99.99,FreeWX-Wi 1.02,2013-01-07 23:08:00,
2013-01-07 18:13:00,27.7,-1.1,30.41,North,-999,0.0,0.0,28,0.00,,,-99.99,FreeWX-Wi 1.02,2013-01-07 23:13:00,
2013-01-07 18:18:00,27.7,-1.1,30.41,North,-999,0.0,0.0,28,0.00,,,-99.99,FreeWX-Wi 1.02,2013-01-07 23:18:00,
2013-01-07 18:23:00,27.5,-1.3,30.39,North,-999,0.0,0.0,28,0.00,,,-99.99,FreeWX-Wi 1.02,2013-01-07 23:23:00,
2013-01-07 18:28:00,27.1,-1.7,30.39,North,-999,0.0,0.0,28,0.00,,,-99.99,FreeWX-Wi 1.02,2013-01-07 23:28:00,
2013-01-07 18:33:00,27.0,-1.7,30.39,North,-999,0.0,0.0,28,0.00,,,-99.99,FreeWX-Wi 1.02,2013-01-07 23:33:00,
2013-01-07 18:38:00,26.8,0.3,30.39,North,-999,0.0,0.0,31,0.00,,,-99.99,FreeWX-Wi 1.02,2013-01-07 23:38:00,
2013-01-07 18:43:00,27.0,0.3,30.39,North,-999,0.0,0.0,31,0.00,,,-99.99,FreeWX-Wi 1.02,2013-01-07 23:43:00,
2013-01-07 18:48:00,26.6,0.1,30.39,North,-999,0.0,0.0,31,0.00,,,-99.99,FreeWX-Wi 1.02,2013-01-07 23:48:00,
2013-01-07 18:53:00,26.4,0.0,30.39,North,-999,0.0,0.0,31,0.00,,,-99.99,FreeWX-Wi 1.02,2013-01-07 23:53:00,
2013-01-07 18:58:00,26.2,-0.2,30.39,North,-999,0.0,0.0,31,0.00,,,-99.99,FreeWX-Wi 1.02,2013-01-07 23:58:00,
2013-01-07 19:03:00,26.1,-0.4,30.39,North,-999,0.0,0.0,31,0.00,,,-99.99,FreeWX-Wi 1.02,2013-01-08 00:03:00,
2013-01-07 19:08:00,26.1,-0.4,30.41,North,-999,0.0,0.0,31,0.00,,,-99.99,FreeWX-Wi 1.02,2013-01-08 00:08:00,
2013-01-07 19:13:00,25.9,1.4,30.41,North,-999,0.0,0.0,34,0.00,,,-99.99,FreeWX-Wi 1.02,2013-01-08 00:13:00,
2013-01-07 19:18:00,25.7,5.4,30.39,North,-999,0.0,0.0,41,0.00,,,-99.99,FreeWX-Wi 1.02,2013-01-08 00:18:00,
2013-01-07 19:23:00,25.2,3.7,30.39,North,-999,0.0,0.0,39,0.00,,,-99.99,FreeWX-Wi 1.02,2013-01-08 00:23:00,
2013-01-07 19:28:00,24.8,5.0,30.39,North,-999,0.0,0.0,42,0.00,,,-99.99,FreeWX-Wi 1.02,2013-01-08 00:28:00,
2013-01-07 19:33:00,24.8,5.0,30.39,North,-999,0.0,0.0,42,0.00,,,-99.99,FreeWX-Wi 1.02,2013-01-08 00:33:00,
2013-01-07 19:38:00,25.2,7.9,30.39,North,-999,0.0,0.0,47,0.00,,,-99.99,FreeWX-Wi 1.02,2013-01-08 00:38:00,
2013-01-07 19:43:00,25.2,7.9,30.39,North,-999,0.0,0.0,47,0.00,,,-99.99,FreeWX-Wi 1.02,2013-01-08 00:43:00,
2013-01-07 19:48:00,24.8,7.9,30.39,North,-999,0.0,0.0,48,0.00,,,-99.99,FreeWX-Wi 1.02,2013-01-08 00:48:00,
2013-01-07 19:53:00,24.8,7.9,30.39,North,-999,0.0,0.0,48,0.00,,,-99.99,FreeWX-Wi 1.02,2013-01-08 00:53:00,
2013-01-07 19:58:00,24.8,8.4,30.39,North,-999,0.0,0.0,49,0.00,,,-99.99,FreeWX-Wi 1.02,2013-01-08 00:58:00,
2013-01-07 20:03:00,24.4,8.1,30.39,North,-999,0.0,0.0,49,0.00,,,-99.99,FreeWX-Wi 1.02,2013-01-08 01:03:00,
2013-01-07 20:08:00,24.6,7.7,30.39,North,-999,0.0,0.0,48,0.00,,,-99.99,FreeWX-Wi 1.02,2013-01-08 01:08:00,
2013-01-07 20:13:00,24.3,7.5,30.39,North,-999,0.0,0.0,48,0.00,,,-99.99,FreeWX-Wi 1.02,2013-01-08 01:13:00,
2013-01-07 20:18:00,23.9,7.5,30.39,North,-999,0.0,0.0,49,0.00,,,-99.99,FreeWX-Wi 1.02,2013-01-08 01:18:00,
2013-01-07 20:23:00,23.9,7.2,30.39,North,-999,0.0,0.0,48,0.00,,,-99.99,FreeWX-Wi 1.02,2013-01-08 01:23:00,
2013-01-07 20:28:00,23.7,7.0,30.39,North,-999,0.0,0.0,48,0.00,,,-99.99,FreeWX-Wi 1.02,2013-01-08 01:28:00,
2013-01-07 20:33:00,23.5,6.8,30.39,North,-999,0.0,0.0,48,0.00,,,-99.99,FreeWX-Wi 1.02,2013-01-08 01:33:00,
2013-01-07 20:38:00,23.7,7.3,30.39,North,-999,0.0,0.0,49,0.00,,,-99.99,FreeWX-Wi 1.02,2013-01-08 01:38:00,
2013-01-07 20:43:00,23.9,8.1,30.39,North,-999,0.0,0.0,50,0.00,,,-99.99,FreeWX-Wi 1.02,2013-01-08 01:43:00,
2013-01-07 20:48:00,23.4,7.5,30.39,North,-999,0.0,0.0,50,0.00,,,-99.99,FreeWX-Wi 1.02,2013-01-08 01:48:00,
2013-01-07 20:53:00,22.8,7.5,30.39,North,-999,0.0,0.0,51,0.00,,,-99.99,FreeWX-Wi 1.02,2013-01-08 01:53:00,
2013-01-07 20:58:00,22.6,8.1,30.39,North,-999,0.0,0.0,53,0.00,,,-99.99,FreeWX-Wi 1.02,2013-01-08 01:58:00,
2013-01-07 21:03:00,22.6,8.1,30.39,North,-999,0.0,0.0,53,0.00,,,-99.99,FreeWX-Wi 1.02,2013-01-08 02:03:00,
2013-01-07 21:08:00,23.0,8.4,30.39,North,-999,0.0,0.0,53,0.00,,,-99.99,FreeWX-Wi 1.02,2013-01-08 02:08:00,
2013-01-07 21:13:00,23.4,8.4,30.39,North,-999,0.0,0.0,52,0.00,,,-99.99,FreeWX-Wi 1.02,2013-01-08 02:13:00,
2013-01-07 21:18:00,23.4,8.4,30.39,North,-999,0.0,0.0,52,0.00,,,-99.99,FreeWX-Wi 1.02,2013-01-08 02:18:00,
2013-01-07 21:23:00,22.8,7.9,30.39,North,-999,0.0,0.0,52,0.00,,,-99.99,FreeWX-Wi 1.02,2013-01-08 02:23:00,
2013-01-07 21:28:00,22.5,8.4,30.39,North,-999,0.0,0.0,54,0.00,,,-99.99,FreeWX-Wi 1.02,2013-01-08 02:28:00,
2013-01-07 21:33:00,22.1,8.1,30.39,North,-999,0.0,0.0,54,0.00,,,-99.99,FreeWX-Wi 1.02,2013-01-08 02:33:00,
2013-01-07 21:38:00,21.9,8.2,30.39,North,-999,0.0,0.0,55,0.00,,,-99.99,FreeWX-Wi 1.02,2013-01-08 02:38:00,
2013-01-07 21:43:00,21.9,9.1,30.39,North,-999,0.0,0.0,57,0.00,,,-99.99,FreeWX-Wi 1.02,2013-01-08 02:43:00,
2013-01-07 21:48:00,21.9,9.1,30.39,North,-999,0.0,0.0,57,0.00,,,-99.99,FreeWX-Wi 1.02,2013-01-08 02:48:00,
2013-01-07 21:53:00,22.1,9.7,30.39,North,-999,0.0,0.0,58,0.00,,,-99.99,FreeWX-Wi 1.02,2013-01-08 02:53:00,
2013-01-07 21:58:00,22.1,9.7,30.39,North,-999,0.0,0.0,58,0.00,,,-99.99,FreeWX-Wi 1.02,2013-01-08 02:58:00,
2013-01-07 22:03:00,22.3,9.9,30.39,North,-999,0.0,0.0,58,0.00,,,-99.99,FreeWX-Wi 1.02,2013-01-08 03:03:00,
2013-01-07 22:08:00,22.3,9.9,30.39,North,-999,0.0,0.0,58,0.00,,,-99.99,FreeWX-Wi 1.02,2013-01-08 03:08:00,
2013-01-07 22:13:00,22.3,9.9,30.39,North,-999,0.0,0.0,58,0.00,,,-99.99,FreeWX-Wi 1.02,2013-01-08 03:13:00,
2013-01-07 22:18:00,22.3,9.9,30.39,North,-999,0.0,0.0,58,0.00,,,-99.99,FreeWX-Wi 1.02,2013-01-08 03:18:00,
2013-01-07 22:23:00,22.3,9.9,30.39,North,-999,0.0,0.0,58,0.00,,,-99.99,FreeWX-Wi 1.02,2013-01-08 03:23:00,
2013-01-07 22:28:00,22.3,9.9,30.39,North,-999,0.0,0.0,58,0.00,,,-99.99,FreeWX-Wi 1.02,2013-01-08 03:28:00,
2013-01-07 22:33:00,22.3,9.9,30.39,North,-999,0.0,0.0,58,0.00,,,-99.99,FreeWX-Wi 1.02,2013-01-08 03:33:00,
2013-01-07 22:38:00,21.9,9.5,30.39,North,-999,0.0,0.0,58,0.00,,,-99.99,FreeWX-Wi 1.02,2013-01-08 03:38:00,
2013-01-07 22:43:00,21.9,9.9,30.39,North,-999,0.0,0.0,59,0.00,,,-99.99,FreeWX-Wi 1.02,2013-01-08 03:43:00,
2013-01-07 22:48:00,21.7,9.3,30.39,North,-999,0.0,0.0,58,0.00,,,-99.99,FreeWX-Wi 1.02,2013-01-08 03:48:00,
2013-01-07 22:53:00,21.6,9.5,30.39,North,-999,0.0,0.0,59,0.00,,,-99.99,FreeWX-Wi 1.02,2013-01-08 03:53:00,
2013-01-07 22:58:00,21.6,9.5,30.39,North,-999,0.0,0.0,59,0.00,,,-99.99,FreeWX-Wi 1.02,2013-01-08 03:58:00,
2013-01-07 23:03:00,21.4,9.3,30.39,North,-999,0.0,0.0,59,0.00,,,-99.99,FreeWX-Wi 1.02,2013-01-08 04:03:00,
2013-01-07 23:08:00,21.6,9.5,30.39,North,-999,0.0,0.0,59,0.00,,,-99.99,FreeWX-Wi 1.02,2013-01-08 04:08:00,
2013-01-07 23:13:00,21.7,9.7,30.39,North,-999,0.0,0.0,59,0.00,,,-99.99,FreeWX-Wi 1.02,2013-01-08 04:13:00,
2013-01-07 23:18:00,21.7,9.7,30.39,North,-999,0.0,0.0,59,0.00,,,-99.99,FreeWX-Wi 1.02,2013-01-08 04:18:00,
2013-01-07 23:23:00,21.9,9.9,30.39,North,-999,0.0,0.0,59,0.00,,,-99.99,FreeWX-Wi 1.02,2013-01-08 04:23:00,
2013-01-07 23:28:00,21.9,9.5,30.39,North,-999,0.0,0.0,58,0.00,,,-99.99,FreeWX-Wi 1.02,2013-01-08 04:28:00,
2013-01-07 23:33:00,21.9,9.5,30.39,North,-999,0.0,0.0,58,0.00,,,-99.99,FreeWX-Wi 1.02,2013-01-08 04:33:00,
2013-01-07 23:38:00,21.9,9.5,30.39,North,-999,0.0,0.0,58,0.00,,,-99.99,FreeWX-Wi 1.02,2013-01-08 04:38:00,
2013-01-07 23:43:00,21.7,9.7,30.39,North,-999,0.0,0.0,59,0.00,,,-99.99,FreeWX-Wi 1.02,2013-01-08 04:43:00,
2013-01-07 23:48:00,21.6,9.5,30.39,North,-999,0.0,0.0,59,0.00,,,-99.99,FreeWX-Wi 1.02,2013-01-08 04:48:00,
2013-01-07 23:53:00,21.2,9.1,30.39,North,-999,0.0,0.0,59,0.00,,,-99.99,FreeWX-Wi 1.02,2013-01-08 04:53:00,
2013-01-07 23:58:00,21.0,9.0,30.39,North,-999,0.0,0.0,59,0.00,,,-99.99,FreeWX-Wi 1.02,2013-01-08 04:58:00,